Hourly Data Report for June 08, 2017

TORONTO CITY
ONTARIO

43°40'00.000" N
79°24'00.000" W
112.50 m
6158355
71508
XTO

Download Data

Hourly Data (June 2017)
Hourly Data Report for June 8, 2017
TIME
LST
Temp Definition
°C
Dew Point Definition
°C
Rel Hum Definition
%
Precip. Amount Definition
mm

Wind Dir Definition
10's deg

Wind Spd Definition
km/h
Visibility Definition
km
Stn Press Definition
kPa
Hmdx Definition


Wind Chill Definition


Weather Definition


00:00 14.0 5.3 56 0.0 LegendMM LegendMM   100.46     LegendNANA
01:00 13.4 6.4 63 0.0 LegendMM LegendMM   100.43     LegendNANA
02:00 12.8 6.3 64 0.0 LegendMM LegendMM   100.40     LegendNANA
03:00 12.6 6.3 65 0.0 LegendMM LegendMM   100.38     LegendNANA
04:00 12.1 6.6 69 0.0 LegendMM LegendMM   100.37     LegendNANA
05:00 11.9 7.5 75 0.0 LegendMM LegendMM   100.40     LegendNANA
06:00 12.9 7.5 70 0.0 LegendMM LegendMM   100.43     LegendNANA
07:00 17.4 7.5 52 0.0 LegendMM LegendMM   100.43     LegendNANA
08:00 19.1 6.0 42 0.0 LegendMM LegendMM   100.43     LegendNANA
09:00 21.1 8.7 45 0.0 LegendMM LegendMM   100.41     LegendNANA
10:00 20.9 7.4 42 0.0 LegendMM LegendMM   100.38     LegendNANA
11:00 22.2 6.5 36 0.0 LegendMM LegendMM   100.31     LegendNANA
12:00 22.2 4.2 31 0.0 LegendMM LegendMM   100.24     LegendNANA
13:00 22.8 5.1 32 0.0 LegendMM LegendMM   100.17     LegendNANA
14:00 23.2 5.2 31 0.0 LegendMM LegendMM   100.10     LegendNANA
15:00 23.0 4.2 29 0.0 LegendMM LegendMM   100.01     LegendNANA
16:00 23.5 6.9 34 0.0 LegendMM LegendMM   99.89     LegendNANA
17:00 22.9 6.7 35 0.0 LegendMM LegendMM   99.82     LegendNANA
18:00 21.8 5.5 35 0.0 LegendMM LegendMM   99.77     LegendNANA
19:00 21.5 5.8 36 0.0 LegendMM LegendMM   99.72     LegendNANA
20:00 19.8 5.9 40 0.0 LegendMM LegendMM   99.69     LegendNANA
21:00 19.1 5.4 41 0.0 LegendMM LegendMM   99.69     LegendNANA
22:00 17.5 9.3 59 0.0 LegendMM LegendMM   99.66     LegendNANA
23:00 17.0 8.6 58 0.0 LegendMM LegendMM   99.61     LegendNANA

Notes on Data Quality.

Legend

  • E = Estimated
  • M = Missing
  • NA = Not Available*
  • [empty] = Indicates an unobserved value
Date modified: